イェ彗星

C/2019 K4 ( Ye )

English version
Home page
Updated on August 6, 2019

---------------------------------------------------------------------

・ プロフィール

発見日 2019年5月30日
発見光度 17.1等
発見者 Quan-zhi Ye(叶泉志)(Palomar)

・ 写真集

・ 軌道要素

Epoch 2019 June 6.0 TT = JDT 2458640.5                                          
T 2019 June 16.42168 TT                                 MPCLINUX                
q   2.2593631            (2000.0)            P               Q                  
z  +0.0004378      Peri.  139.77261     +0.76299825     +0.64639471             
 +/-0.0000364      Node   180.16336     -0.08936391     +0.10969583             
e   0.9990108      Incl.  105.30674     +0.64019354     -0.75507663             
From 114 observations 2019 Apr. 24-July 24, mean residual 0".5.                 

・ 星図

・ 光度変化

        m1 = 12.0 + 5 logΔ + 10.0 log r

---------------------------------------------------------------------

軌道要素はM.P.E.C. 2019-O99に掲載されたものです。
星図はステラナビゲータ Ver.10 (アストロアーツ) で作成したものです。
光度グラフはComet for Windowsで作成したものです。

---------------------------------------------------------------------

Copyright(C) Seiichi Yoshida (comet@aerith.net). All rights reserved.